TimeCST,TemperatureF,Dew PointF,Humidity,Sea Level PressureIn,VisibilityMPH,Wind Direction,Wind SpeedMPH,Gust SpeedMPH,PrecipitationIn,Events,Conditions,WindDirDegrees,DateUTC
12:15 AM,42.3,34.2,73,30.08,10.0,South,15.0,-,N/A,,Clear,180,2013-11-09 06:15:00
12:35 AM,42.1,34.2,74,30.08,10.0,South,15.0,-,N/A,,Clear,170,2013-11-09 06:35:00
12:55 AM,41.9,34.0,73,30.08,10.0,South,12.7,-,N/A,,Clear,180,2013-11-09 06:55:00
1:15 AM,41.0,34.0,76,30.08,10.0,South,12.7,-,N/A,,Clear,170,2013-11-09 07:15:00
1:35 AM,41.0,34.0,76,30.07,10.0,South,13.8,-,N/A,,Clear,170,2013-11-09 07:35:00
1:55 AM,41.0,34.0,76,30.07,10.0,South,13.8,-,N/A,,Clear,170,2013-11-09 07:55:00
2:15 AM,41.2,34.0,76,30.06,10.0,South,13.8,-,N/A,,Clear,170,2013-11-09 08:15:00
2:35 AM,41.0,34.0,76,30.06,10.0,South,13.8,-,N/A,,Clear,170,2013-11-09 08:35:00
2:55 AM,41.0,34.2,77,30.05,10.0,South,12.7,-,N/A,,Clear,170,2013-11-09 08:55:00
3:15 AM,40.5,34.2,78,30.05,10.0,South,13.8,-,N/A,,Clear,180,2013-11-09 09:15:00
3:35 AM,40.1,34.2,79,30.05,10.0,South,11.5,-,N/A,,Clear,180,2013-11-09 09:35:00
3:55 AM,39.2,34.2,82,30.05,10.0,South,8.1,-,N/A,,Clear,180,2013-11-09 09:55:00
4:15 AM,39.4,34.2,82,30.04,10.0,South,10.4,-,N/A,,Clear,180,2013-11-09 10:15:00
4:35 AM,39.9,34.7,82,30.04,10.0,South,8.1,-,N/A,,Clear,180,2013-11-09 10:35:00
4:55 AM,40.3,34.7,80,30.05,10.0,South,11.5,-,N/A,,Clear,190,2013-11-09 10:55:00
5:15 AM,39.7,34.7,82,30.05,10.0,South,9.2,-,N/A,,Clear,190,2013-11-09 11:15:00
5:35 AM,39.4,34.7,83,30.06,10.0,South,8.1,-,N/A,,Clear,190,2013-11-09 11:35:00
5:55 AM,39.2,34.7,84,30.06,10.0,South,8.1,-,N/A,,Clear,180,2013-11-09 11:55:00
6:15 AM,39.2,34.7,84,30.06,10.0,South,9.2,-,N/A,,Clear,190,2013-11-09 12:15:00
6:35 AM,38.7,34.7,86,30.07,10.0,South,8.1,-,N/A,,Clear,190,2013-11-09 12:35:00
6:55 AM,38.3,34.7,87,30.07,10.0,South,6.9,-,N/A,,Clear,190,2013-11-09 12:55:00
7:15 AM,39.6,35.6,86,30.08,10.0,South,6.9,-,N/A,,Clear,190,2013-11-09 13:15:00
7:35 AM,41.2,36.5,83,30.08,10.0,South,8.1,-,N/A,,Clear,190,2013-11-09 13:35:00
7:55 AM,43.9,37.6,78,30.09,10.0,SSW,9.2,-,N/A,,Clear,200,2013-11-09 13:55:00
8:15 AM,46.2,38.3,74,30.09,10.0,SSW,10.4,-,N/A,,Clear,200,2013-11-09 14:15:00
8:35 AM,49.5,39.4,68,30.09,10.0,SW,12.7,-,N/A,,Clear,220,2013-11-09 14:35:00
8:55 AM,51.8,38.5,60,30.09,10.0,SW,15.0,-,N/A,,Clear,230,2013-11-09 14:55:00
9:15 AM,52.9,39.2,60,30.09,10.0,SW,18.4,25.3,N/A,,Clear,230,2013-11-09 15:15:00
9:35 AM,54.3,39.6,57,30.09,10.0,WSW,16.1,23.0,N/A,,Clear,240,2013-11-09 15:35:00
9:55 AM,55.6,40.6,57,30.10,10.0,West,21.9,-,N/A,,Clear,260,2013-11-09 15:55:00
10:15 AM,55.9,40.1,55,30.10,10.0,WSW,17.3,-,N/A,,Clear,250,2013-11-09 16:15:00
10:35 AM,56.5,40.5,55,30.10,10.0,WSW,16.1,-,N/A,,Clear,240,2013-11-09 16:35:00
10:55 AM,58.1,41.0,53,30.10,10.0,WSW,17.3,-,N/A,,Clear,240,2013-11-09 16:55:00
11:15 AM,58.6,41.0,52,30.10,10.0,WSW,17.3,20.7,N/A,,Clear,240,2013-11-09 17:15:00
11:35 AM,59.7,41.5,51,30.09,10.0,West,13.8,-,N/A,,Clear,260,2013-11-09 17:35:00
11:55 AM,60.1,41.4,50,30.08,10.0,SW,13.8,18.4,N/A,,Clear,220,2013-11-09 17:55:00
12:15 PM,60.4,41.4,49,30.07,10.0,SW,10.4,-,N/A,,Clear,230,2013-11-09 18:15:00
12:35 PM,61.9,41.2,47,30.06,10.0,SSW,11.5,16.1,N/A,,Clear,210,2013-11-09 18:35:00
12:55 PM,61.0,40.1,46,30.06,10.0,WSW,11.5,-,N/A,,Clear,240,2013-11-09 18:55:00
1:15 PM,63.5,41.7,45,30.06,10.0,WSW,12.7,-,N/A,,Clear,240,2013-11-09 19:15:00
1:35 PM,63.7,40.1,42,30.06,10.0,West,15.0,21.9,N/A,,Clear,260,2013-11-09 19:35:00
1:55 PM,63.5,40.1,42,30.06,10.0,West,15.0,23.0,N/A,,Clear,260,2013-11-09 19:55:00
2:15 PM,63.7,40.3,42,30.07,10.0,West,15.0,-,N/A,,Clear,260,2013-11-09 20:15:00
2:35 PM,63.9,38.8,40,30.07,10.0,West,16.1,25.3,N/A,,Clear,270,2013-11-09 20:35:00
2:55 PM,63.5,39.2,41,30.07,10.0,West,15.0,-,N/A,,Clear,260,2013-11-09 20:55:00
3:15 PM,63.5,38.3,39,30.08,10.0,West,15.0,20.7,N/A,,Clear,270,2013-11-09 21:15:00
3:35 PM,62.8,38.3,40,30.08,10.0,West,12.7,-,N/A,,Clear,270,2013-11-09 21:35:00
3:55 PM,62.2,39.0,42,30.08,10.0,West,9.2,-,N/A,,Clear,260,2013-11-09 21:55:00
4:15 PM,60.4,39.2,45,30.10,10.0,West,10.4,-,N/A,,Clear,270,2013-11-09 22:15:00
4:35 PM,57.7,39.0,50,30.10,10.0,West,8.1,-,N/A,,Clear,270,2013-11-09 22:35:00
4:55 PM,54.9,38.7,54,30.10,10.0,West,8.1,-,N/A,,Clear,260,2013-11-09 22:55:00
5:15 PM,54.5,38.5,55,30.11,10.0,West,5.8,-,N/A,,Clear,260,2013-11-09 23:15:00
5:35 PM,54.5,37.4,52,30.12,10.0,WSW,8.1,-,N/A,,Clear,250,2013-11-09 23:35:00
5:55 PM,51.8,37.8,59,30.13,10.0,WSW,8.1,-,N/A,,Clear,250,2013-11-09 23:55:00
6:15 PM,50.2,38.3,64,30.13,10.0,West,8.1,-,N/A,,Clear,260,2013-11-10 00:15:00
6:35 PM,50.7,37.8,61,30.14,10.0,WSW,6.9,-,N/A,,Clear,250,2013-11-10 00:35:00
6:55 PM,48.6,37.8,66,30.15,10.0,WSW,6.9,-,N/A,,Clear,250,2013-11-10 00:55:00
7:15 PM,49.3,37.4,64,30.15,10.0,West,6.9,-,N/A,,Clear,260,2013-11-10 01:15:00
7:35 PM,49.8,37.4,62,30.16,10.0,West,6.9,-,N/A,,Clear,270,2013-11-10 01:35:00
8:35 PM,46.9,37.0,68,30.18,10.0,West,8.1,-,N/A,,Clear,270,2013-11-10 02:35:00
8:55 PM,47.1,37.4,69,30.18,10.0,West,6.9,-,N/A,,Clear,280,2013-11-10 02:55:00
9:15 PM,46.4,36.5,68,30.19,10.0,West,8.1,-,N/A,,Clear,270,2013-11-10 03:15:00
9:35 PM,46.4,36.5,68,30.19,10.0,West,6.9,-,N/A,,Clear,280,2013-11-10 03:35:00
9:55 PM,47.3,35.8,64,30.20,10.0,WNW,8.1,-,N/A,,Clear,290,2013-11-10 03:55:00
10:15 PM,45.1,35.6,69,30.21,10.0,WNW,8.1,-,N/A,,Clear,290,2013-11-10 04:15:00
10:35 PM,45.3,35.2,68,30.22,10.0,WNW,6.9,-,N/A,,Clear,300,2013-11-10 04:35:00
10:55 PM,44.6,34.7,68,30.22,10.0,WNW,5.8,-,N/A,,Clear,300,2013-11-10 04:55:00
11:15 PM,45.1,34.7,67,30.22,10.0,NW,6.9,-,N/A,,Clear,310,2013-11-10 05:15:00
11:35 PM,47.3,35.1,62,30.23,10.0,WNW,8.1,-,N/A,,Clear,300,2013-11-10 05:35:00
11:55 PM,47.7,35.1,62,30.23,10.0,NW,9.2,-,N/A,,Clear,310,2013-11-10 05:55:00